Location: Quebec
(46.8000°N, 71.2500°W)
Time: 13:24:46
(UTC-04:00)

Vanguard 2 Rocket - All Passes

Search period start: 25 June 2018 00:00
Search period end: 05 July 2018 00:00
Orbit: 553 x 3328 km, 32.9° (Epoch: 24 June)

Date Brightness Start Highest point End Pass type
(mag) Time Alt. Az. Time Alt. Az. Time Alt. Az.
25 Jun - 06:52:30 10° SSE 07:01:46 16° SE 07:11:37 10° ESE daylight
25 Jun - 08:59:43 10° SSW 09:16:14 37° SSE 09:32:27 10° E daylight
25 Jun - 11:13:32 10° WSW 11:32:30 50° S 11:47:55 10° ESE daylight
25 Jun - 13:30:40 10° W 13:48:31 46° SSW 14:00:54 10° SE daylight
25 Jun - 15:50:15 10° W 16:02:12 25° SW 16:10:43 10° S daylight
26 Jun - 08:00:34 10° SSW 08:15:12 30° SE 08:30:45 10° E daylight
26 Jun - 10:12:37 10° SW 10:30:59 48° SSE 10:47:35 10° E daylight
26 Jun - 12:28:37 10° WSW 12:47:30 50° S 13:01:36 10° ESE daylight
26 Jun - 14:47:09 10° W 15:02:19 33° SSW 15:12:54 10° SSE daylight
26 Jun - 17:13:34 10° WSW 17:14:22 10° SW 17:15:09 10° SW daylight
27 Jun - 07:02:26 10° S 07:14:32 23° SE 07:28:03 10° E daylight
27 Jun - 09:12:21 10° SW 09:29:31 43° SSE 09:46:44 10° E daylight
27 Jun - 11:27:01 10° WSW 11:46:06 52° S 12:01:50 10° ESE daylight
27 Jun - 13:44:32 10° W 14:01:55 41° SSW 14:14:21 10° SE daylight
27 Jun - 16:05:24 10° W 16:15:05 18° SW 16:22:36 10° S daylight
28 Jun - 06:06:00 10° SSE 06:14:19 15° SE 06:23:35 10° ESE daylight
28 Jun - 08:12:46 10° SSW 08:28:16 37° SSE 08:45:18 10° E daylight
28 Jun - 10:25:57 10° WSW 10:44:30 51° S 11:01:34 10° ESE daylight
28 Jun - 12:42:23 10° W 13:01:00 47° SSW 13:15:14 10° SE daylight
28 Jun - 15:01:33 10° W 15:15:22 27° SW 15:25:34 10° SSE daylight
29 Jun - 07:13:58 10° SSW 07:27:24 30° SE 07:43:08 10° E daylight
29 Jun - 09:25:27 10° SW 09:42:54 49° SSE 10:00:48 10° E daylight
29 Jun - 11:40:41 10° WSW 11:59:40 51° S 12:15:35 10° ESE daylight
29 Jun - 13:58:37 10° W 14:15:07 35° SSW 14:27:26 10° SSE daylight
29 Jun - 16:22:28 10° WSW 16:27:47 12° SW 16:32:27 10° SSW daylight
30 Jun - 06:16:10 10° S 06:27:00 22° SE 06:39:59 10° E daylight
30 Jun - 08:25:35 10° SW 08:41:29 44° SSE 08:59:30 10° E daylight
30 Jun - 10:39:31 10° WSW 10:58:04 53° S 11:15:25 10° ESE daylight
30 Jun - 12:56:18 10° W 13:14:22 43° SSW 13:28:36 10° SE daylight
30 Jun - 15:16:37 10° W 15:28:12 21° SW 15:37:24 10° S daylight
01 Jul - 05:20:13 10° SSE 05:27:04 14° SE 05:34:58 10° ESE daylight
01 Jul - 07:26:22 10° SSW 07:40:25 37° SSE 07:57:36 10° E daylight
01 Jul - 09:38:53 10° WSW 09:56:23 52° S 10:14:42 10° ESE daylight
01 Jul - 11:54:31 10° W 12:13:09 48° SSW 12:29:08 10° SE daylight
01 Jul - 14:13:03 10° W 14:28:08 29° SW 14:39:59 10° SSE daylight
02 Jul - 06:27:54 10° SSW 06:39:50 29° SE 06:55:00 10° E daylight
02 Jul - 08:38:49 10° SW 08:54:50 48° SSE 09:13:29 10° E daylight
02 Jul - 10:53:16 10° WSW 11:11:37 52° S 11:29:04 10° ESE daylight
02 Jul - 13:10:26 10° W 13:27:33 37° SSW 13:41:33 10° SSE daylight
02 Jul - 15:33:14 10° WSW 15:40:51 14° SW 15:47:30 10° SSW daylight
03 Jul - 05:30:27 10° S 05:39:45 21° SE 05:51:28 10° E daylight
03 Jul - 07:39:20 10° SW 07:53:37 43° SSE 08:11:42 10° E daylight
03 Jul - 09:52:34 10° WSW 10:09:56 53° S 10:28:28 10° ESE daylight
03 Jul - 12:08:30 10° W 12:26:30 43° SSW 12:42:21 10° SE daylight
03 Jul - 14:28:06 10° W 14:40:56 22° SW 14:51:41 10° S daylight
04 Jul - 04:35:12 10° SSE 04:40:09 13° SE 04:45:47 10° ESE daylight
04 Jul - 06:40:28 10° SSW 06:52:50 36° SSE 07:09:24 10° E daylight
04 Jul - 08:52:21 10° WSW 09:08:19 51° S 09:27:18 10° ESE daylight
04 Jul - 11:07:10 10° W 11:25:05 48° SSW 11:42:30 10° SE daylight
04 Jul - 13:24:54 10° W 13:40:33 30° SW 13:53:55 10° SSE daylight
